Location: Jackson Park
(37.2862°N, 79.9123°W)
Time: 20:52:57
(UTC+00:00)

Transit 4A - Pass Details

Date: 18 May 2026
Orbit: 860 x 980 km, 66.8° (Epoch: 9 June)

Event Time Altitude Azimuth Distance (km) Brightness Sun altitude
Rises 23:21:30 0° 311° (NW) 3,684 12.4 10.8°
Reaches altitude 10° 23:25:29 10° 287° (WNW) 2,724 18.5 10.0°
Maximum altitude 23:28:29 14° 259° (W) 2,440 11.4 9.4°
Drops below altitude 10° 23:31:28 10° 230° (SW) 2,693 10.8 8.9°
Sets 23:35:24 0° 206° (SSW) 3,612 11.1 8.1°
